Location: Andelshofen
(47.7799°N, 9.1878°E)
Time: 16:23:19
(UTC+00:00)

Daily predictions for brighter satellites

Satellite Brightness Start Highest point End
(mag) Time Altitude Azimuth Time Altitude Azimuth Time Altitude Azimuth
Cosmos 2221 3.4 16:00:10 10° SSW 16:04:21 53° WNW 16:08:37 10° N
USA 308 3.6 16:00:41 10° WNW 16:04:39 37° N 16:08:37 10° ENE
Okean O Rocket 3.4 16:02:51 10° E 16:04:44 13° ENE 16:06:37 10° NNE
SL-16 R/B 3.3 16:00:18 10° N 16:04:52 24° NE 16:09:23 10° E
MOS 1 Rocket 4.0 16:00:53 10° N 16:05:42 56° WNW 16:10:13 10° SSW
CZ-2C R/B 2.8 16:01:26 10° SSE 16:06:14 69° ENE 16:10:58 10° N
Envisat 4.5 16:02:12 10° S 16:07:00 42° W 16:11:51 10° NNW
Cosmos 2082 Rocket 2.6 16:02:54 10° S 16:08:19 48° ESE 16:13:44 10° NE
Sich 1 3.2 16:04:55 10° N 16:09:07 49° ENE 16:13:19 10° SSE
Cosmos 1500 Rocket 3.8 16:04:46 10° NNW 16:09:12 79° W 16:13:35 10° S
Cosmos 540 Rocket 3.5 16:04:14 10° S 16:09:17 69° ESE 16:14:23 10° NNE
ARGOS 4.4 16:07:08 10° E 16:10:48 19° ENE 16:14:30 10° NNE
FengYun 1-2 T 4.3 16:08:33 10° SSE 16:14:01 62° ENE 16:19:29 10° N
COSMOS 2455 2.9 16:08:53 10° SSW 16:14:50 67° ESE 16:20:50 10° NE
SMAP 3.3 16:12:16 10° SE 16:16:44 49° ENE 16:21:14 10° N
NOAA 6 4.2 16:13:16 10° SE 16:18:14 52° ENE 16:23:13 10° N
Cosmos 1933 3.3 16:17:34 10° S 16:21:36 84° E 16:25:39 10° N
Cosmos 1833 Rocket 3.0 16:16:01 10° SW 16:21:37 70° WNW 16:27:17 10° NNE
Cosmos 1805 Rocket 3.5 16:17:19 10° N 16:21:41 84° E 16:26:01 10° S
Cosmos 2278 3.7 16:16:33 10° NNW 16:22:15 62° ENE 16:27:53 10° SE
Cosmos 2333 Rocket 4.0 16:21:10 10° N 16:23:42 13° NNE 16:26:02 10° NE
Cosmos 1602 3.8 16:20:41 10° N 16:24:34 85° W 16:28:27 10° S
CZ-4B DEB 4.4 16:22:07 10° SE 16:27:25 50° ENE 16:32:42 10° N
USA 305 3.4 16:25:08 10° WNW 16:29:12 42° NNE 16:32:51 12° E
CZ-2C R/B 3.8 16:26:20 10° NE 16:30:17 22° E 16:34:12 10° SE
SL-24 R/B - RUBIN 2 4.2 16:27:10 10° NW 16:31:38 60° WSW 16:35:52 10° SSE
Cosmos 2219 Rocket 4.0 16:29:47 10° N 16:31:46 12° NNE 16:33:20 11° NE
CZ-4B R/B 3.1 16:28:52 10° S 16:32:48 72° WSW 16:36:33 10° NNW
Cosmos 1500 3.0 16:31:06 10° N 16:34:51 81° E 16:38:34 10° SSE
Meteor 1-14 Rocket 4.4 16:29:18 10° N 16:35:06 59° ENE 16:40:58 10° SSE
Cosmos 44 Rocket 3.3 16:31:30 10° NNW 16:36:25 59° NE 16:41:07 10° SE
Meteor 2-16 Rocket 4.5 16:33:17 10° N 16:39:20 58° ENE 16:45:21 10° SSE
COSMOS 2406 3.6 16:35:34 10° SW 16:41:16 65° WNW 16:46:59 10° NNE
Cosmos 1814 Rocket 4.0 16:37:01 10° S 16:42:09 62° ESE 16:47:16 10° NNE
Cosmos 921 Rocket 3.9 16:39:51 10° SSE 16:43:27 28° E 16:45:57 16° NE
Cosmos 1570 Rocket 4.0 16:43:52 10° S 16:49:01 62° ESE 16:54:11 10° NNE
MOS 1-B Rocket 4.4 16:45:55 10° NNE 16:51:48 49° E 16:58:31 10° S
CZ-4B R/B 3.4 16:48:25 10° SE 16:53:30 45° ENE 16:58:33 10° N
Cosmos 2298 Rocket 4.2 16:49:55 10° NNW 16:55:08 52° ENE 17:00:20 10° SE
CZ-2D R/B 3.2 16:52:00 10° SSE 16:55:46 61° ENE 16:59:32 10° N
USA 267 3.3 16:50:26 16° ENE 16:55:56 75° SE 17:02:28 10° SW
MOS 1-B 4.3 16:52:38 10° SSE 16:58:20 66° ENE 17:04:05 10° N
Cosmos 1939 Rocket 3.6 16:54:26 10° S 16:58:29 58° W 17:02:29 10° NNW
ATLAS CENTAUR R/B 3.1 16:49:28 10° WSW 16:58:39 61° NW 17:01:31 20° NE
Cosmos 1151 Rocket 2.9 16:57:08 10° S 17:01:28 79° E 17:05:51 10° NNE
USA 306 3.1 16:57:27 10° WNW 17:01:37 53° NNE 17:03:51 25° E
COSMO-SKYMED 1 3.2 16:59:10 19° NE 17:01:41 34° E 17:05:39 10° SSE
Cosmos 1633 Rocket 2.9 16:57:25 10° N 17:01:49 79° E 17:06:13 10° SSE
Cosmos 1666 2.6 16:59:50 10° N 17:03:35 85° W 17:07:16 10° S
Cosmos 1782 3.7 16:59:45 10° SSW 17:03:37 50° WNW 17:07:31 10° N
APEX 3.7 17:00:36 10° S 17:03:54 30° ESE 17:04:24 29° E
Meteor 2-6 Rocket 4.2 16:58:54 10° S 17:04:30 60° E 17:09:59 10° NNE
Landsat 5 4.5 17:05:03 24° E 17:05:03 24° E 17:08:07 10° SSE
Cosmos 2360 Rocket 3.0 17:01:02 10° NNW 17:06:00 30° NE 17:08:17 23° E
ISS -1.0 17:04:21 10° W 17:06:52 20° SW 17:09:23 10° S
PAYLOAD B 4.2 17:02:47 10° SSE 17:08:24 83° ENE 17:14:01 10° NNW
Cosmos 1900 4.2 17:03:45 10° SSW 17:08:36 81° ESE 17:11:52 21° NE
YAOGAN 1 4.2 17:11:21 17° NNE 17:11:21 17° NNE 17:12:49 10° N
Cosmos 1818 3.7 17:06:27 10° NW 17:11:57 80° SW 17:17:24 10° SSE
CZ-2C R/B 3.7 17:14:34 10° SSW 17:16:48 14° S 17:18:59 10° SE
Cosmos 2279 Rocket 4.0 17:11:19 10° S 17:17:31 87° W 17:23:46 10° N
ATLAS 5 CENTAUR R/B 2.0 17:11:49 10° NW 17:18:43 55° NNE 17:19:39 40° E
Meteor 2-15 4.4 17:13:52 10° S 17:19:52 64° E 17:25:54 10° NNE
Cosmos 2266 Rocket 4.0 17:14:34 10° N 17:20:56 63° ENE 17:27:17 10° SSE
ERBS 4.2 17:18:55 10° NW 17:20:46 18° N 17:20:46 18° N
USA 307 2.9 17:18:00 10° WNW 17:22:14 62° NNE 17:23:33 40° E
CZ-4C R/B 3.7 17:15:50 10° NW 17:22:59 59° WSW 17:31:15 10° SSE
SL-08 RB Rocket 3.9 17:20:36 10° SE 17:25:00 46° ENE 17:29:23 10° N
Lacrosse 5 rocket 1.9 17:21:26 10° WNW 17:25:17 55° SW 17:28:57 12° SSE
NOSS 3-4 (A) 4.5 17:20:46 10° NW 17:26:43 33° NNE 17:28:52 28° ENE
Cosmos 2208 Rocket 4.2 17:22:56 10° SSW 17:28:21 80° WNW 17:32:51 16° NNE
Cosmos 1933 Rocket 3.5 17:24:38 10° N 17:28:56 56° ENE 17:33:12 10° SSE
Cosmos 2322 Rocket 2.2 17:23:18 10° NNW 17:28:59 62° ENE 17:34:38 10° SE
ATLAS 2AS CENTAUR R/B 4.0 17:22:58 10° NW 17:29:01 25° NNE 17:31:18 22° NE
COSMOS 2428 4.2 17:25:36 10° N 17:28:44 19° NNE 17:28:44 19° NNE
USA 234 3.3 17:23:32 10° SE 17:30:06 79° SW 17:36:40 10° NW
Cosmos 2150 Rocket 3.9 17:25:32 10° NNW 17:30:45 89° WSW 17:36:01 10° SSE
Cosmos 1328 Rocket 3.8 17:27:08 10° SSW 17:31:33 72° W 17:36:00 10° N
Cosmos 1980 Rocket 4.2 17:26:57 10° NW 17:31:50 30° WSW 17:36:40 10° SSW
Cosmos 1470 Rocket 3.6 17:30:30 10° NNW 17:34:59 80° W 17:39:28 10° S
Cosmos 1544 2.9 17:31:29 10° N 17:35:06 86° E 17:38:44 10° S
Cosmos 1125 Rocket 3.5 17:31:42 10° NNW 17:36:59 86° WSW 17:42:16 10° SSE
Cosmos 1867 3.9 17:32:18 10° S 17:37:28 45° ESE 17:38:28 41° E
Cosmos 1812 4.3 17:33:58 10° SW 17:37:30 34° WNW 17:41:04 10° N
NOSS 3-3 (A) 4.4 17:32:39 10° S 17:37:45 36° ESE 17:38:22 35° ESE
NOSS 3-3 (C) 4.4 17:32:45 10° S 17:37:51 35° ESE 17:38:27 34° ESE
X-37B 2.2 17:36:00 10° SW 17:37:49 24° S 17:37:49 24° S
H-2A R/B 2.5 17:33:36 10° S 17:38:38 59° W 17:43:36 10° NNW
DEBRIS 4.2 17:36:51 10° S 17:38:35 24° SSE 17:38:35 24° SSE
Okean O Rocket 1.5 17:35:55 10° SSE 17:40:23 88° ENE 17:44:53 10° NNW
Meteor 1-10 Rocket 4.1 17:35:52 10° S 17:41:37 87° ESE 17:47:11 11° NNE
Meteor 1-11 Rocket 3.6 17:36:30 10° N 17:42:11 82° E 17:47:58 10° SSE
GEOS 3 Rocket 4.1 17:41:55 38° NE 17:42:15 39° NE 17:47:02 10° NNW
USA 32 4.0 17:38:29 10° S 17:43:36 60° E 17:46:22 27° NNE
USA 308 2.7 17:40:42 10° WNW 17:44:58 79° NNE 17:45:21 70° E
SL-16 R/B 2.3 17:43:54 10° NNW 17:49:35 75° WSW 17:55:13 10° SSE
SKYMED 2 3.6 17:47:47 30° N 17:49:53 79° WNW 17:54:14 10° SSW
ARGOS 3.2 17:45:04 10° S 17:50:28 78° WSW 17:55:54 10° NNW
Cosmos 2237 Rocket 4.3 17:48:28 10° N 17:49:04 11° NNE 17:49:04 11° NNE
Cosmos 2082 Rocket 3.6 17:47:29 10° WSW 17:52:35 34° NW 17:56:57 13° N
deb Chang Zheng 4 4.2 17:51:46 10° S 17:56:01 56° W 18:00:15 10° NNW
Cosmos 1241 Rocket 4.4 17:54:43 10° SSW 18:00:59 61° ESE 18:01:58 54° E
COSMOS 2455 4.3 17:55:57 10° W 18:01:15 31° NW 18:04:54 17° N
Feng Yun 1-1 Rocket 4.3 17:59:24 10° SSE 18:05:19 90° WSW 18:11:12 10° NNW
USA 305 3.2 18:05:02 10° WNW 18:08:52 64° WSW 18:08:52 64° WSW
Cosmos 2333 Rocket 3.0 18:04:01 10° NNW 18:08:05 37° NNE 18:08:05 37° NNE
Cosmos 1356 Rocket 4.3 18:05:35 10° NNW 18:09:40 49° W 18:13:46 10° S
CZ-2C R/B 3.1 18:06:50 16° N 18:10:57 56° WNW 18:16:00 10° SSW
Cosmos 2219 Rocket 3.4 18:11:59 10° NNW 18:15:04 29° N 18:15:04 29° N
Aureole 3 Rocket 3.7 18:13:16 10° SSW 18:17:53 77° W 18:24:33 10° N
Nadezhda 2 Rocket 4.4 18:18:01 10° N 18:24:23 74° ENE 18:24:23 74° ENE
COSMO-SKYMED 1 4.5 18:36:23 23° NW 18:37:45 28° WNW 18:41:26 10° WSW
USA 267 3.7 18:37:47 48° N 18:38:47 52° NNW 18:45:04 10° W
Cosmos 2360 Rocket 2.7 18:44:47 10° NW 18:50:08 55° WSW 18:50:08 55° WSW
Cosmos 2322 Rocket 4.3 19:08:08 10° NW 19:12:35 24° WSW 19:17:00 10° SSW
NOSS 3-4 (A) 4.4 19:11:30 10° NW 19:16:19 50° NW 19:16:19 50° NW
NOSS 3-4 (C) 4.4 19:11:36 10° NW 19:16:24 50° NW 19:16:24 50° NW
ATLAS 2AS CENTAUR R/B 4.0 19:14:35 10° NW 19:18:44 33° NNW 19:18:44 33° NNW
